STARLINK-32704 (62826 NORAD) Tracking and Keplerian Element Data

This shows tracking and keplerian element data for the satellite.

Feedback or suggestion? Click here.




ElementValue
Catalog62826
NameSTARLINK-32704
Epoch Orbit295
Epoch Day35.25001157
Epoch Year2025
RAAN11.4469
Inclination53.1473
Eccentricity0.000118
Argument of Perigee106.0537
Mean Anonmoly96.8881
Mean Motion15.8606515
Decay Rate-0.0110768
L11 62826U 25018W 25035.25001157 -.01107680 00000+0 -49737-2 0 9992
L22 62826 53.1473 11.4469 0001180 106.0537 96.8881 15.86065150 2959



Live tracking and technical data element details for STARLINK-32704 (NORAD 62826). STARLINK-32704 can be tracked NOW for your location showing map with azimuth and elevation plus other details from your city location.







IsCatalogInMostPopularTable: catalog: 62826, numindb: 5
Update: records affected: 1



GetName: 62826 STARLINK-32704

Hit Count: updated at: Fri, 14 Feb 2025 15:13:06 GMT